When you browse on this site, cookies collect data to enhance your experience and personalize the content and advertising you see.
Visit our Privacy Policy to learn more. By continuing to use the site, you agree to this use of cookies and data.
  • In United Kingdom
  • List of Countries
  • For 7 days
  • Water Temperature
  • Weather Map
  • Weather Widgets
  • user-avatar
    Login

    Hourly Weather Slyudyanka

    Today, 21 August, Wednesday

    Time Temperature Precipitation Wind Pressure Humidity
    00:00 +12°C° 0 mm 2 mps 714 mmHg 87%
    01:00 +12°C° 0 mm 2 mps 714 mmHg 87%
    02:00 +12°C° 0 mm 2 mps 714 mmHg 87%
    03:00 +11°C° 0 mm 1 mps 714 mmHg 87%
    04:00 +11°C° 0 mm 1 mps 714 mmHg 86%
    05:00 +12°C° 0 mm 1 mps 714 mmHg 82%
    06:00 +14°C° 0 mm 1 mps 714 mmHg 78%
    07:00 +15°C° 0 mm 1 mps 714 mmHg 73%
    08:00 +18°C° 0 mm 1 mps 714 mmHg 66%
    09:00 +20°C° 0 mm 1 mps 714 mmHg 59%
    10:00 +22°C° 0 mm 1 mps 714 mmHg 52%
    11:00 +23°C° 0 mm 1 mps 714 mmHg 51%
    12:00 +23°C° 0 mm 1 mps 713 mmHg 50%
    13:00 +23°C° 0 mm 2 mps 713 mmHg 49%
    14:00 +23°C° 0 mm 2 mps 713 mmHg 51%
    15:00 +23°C° 0 mm 2 mps 713 mmHg 52%
    16:00 +21°C° 0 mm 2 mps 713 mmHg 54%
    17:00 +20°C° 0 mm 1 mps 712 mmHg 62%
    18:00 +18°C° 0 mm 1 mps 712 mmHg 71%
    19:00 +14°C° 0 mm 0 mps 712 mmHg 79%
    20:00 +15°C° 0 mm 1 mps 712 mmHg 81%
    21:00 +14°C° 0 mm 1 mps 712 mmHg 83%
    22:00 +14°C° 0 mm 1 mps 712 mmHg 84%
    23:00 +13°C° 0 mm 1 mps 712 mmHg 84%

    Tomorrow, 22 August, Thursday

    Time Temperature Precipitation Wind Pressure Humidity
    00:00 +13°C° 0 mm 1 mps 712 mmHg 83%
    01:00 +13°C° 0 mm 1 mps 713 mmHg 82%
    02:00 +13°C° 0 mm 1 mps 712 mmHg 84%
    03:00 +13°C° 0 mm 1 mps 712 mmHg 85%
    04:00 +12°C° 0 mm 1 mps 712 mmHg 87%
    05:00 +13°C° 0.1 mm 1 mps 712 mmHg 85%
    06:00 +14°C° 0.1 mm 1 mps 713 mmHg 83%
    07:00 +15°C° 0.1 mm 1 mps 713 mmHg 81%
    08:00 +16°C° 0.2 mm 1 mps 713 mmHg 80%
    09:00 +19°C° 0.2 mm 1 mps 713 mmHg 78%
    10:00 +20°C° 0.2 mm 1 mps 713 mmHg 77%
    11:00 +20°C° 0.3 mm 1 mps 712 mmHg 73%
    12:00 +21°C° 0.3 mm 1 mps 712 mmHg 68%
    13:00 +21°C° 0.3 mm 2 mps 712 mmHg 64%
    14:00 +20°C° 0.2 mm 2 mps 712 mmHg 65%
    15:00 +21°C° 0.2 mm 1 mps 711 mmHg 66%
    16:00 +21°C° 0.2 mm 1 mps 711 mmHg 66%
    17:00 +19°C° 0.1 mm 1 mps 711 mmHg 73%
    18:00 +16°C° 0.1 mm 1 mps 711 mmHg 80%
    19:00 +13°C° 0.1 mm 0 mps 711 mmHg 87%
    20:00 +13°C° 0 mm 0 mps 711 mmHg 87%
    21:00 +14°C° 0 mm 1 mps 711 mmHg 88%
    22:00 +14°C° 0 mm 1 mps 711 mmHg 88%
    23:00 +13°C° 0 mm 1 mps 711 mmHg 89%

    Day after tomorrow, 23 August, Friday

    Time Temperature Precipitation Wind Pressure Humidity
    00:00 +13°C° 0 mm 1 mps 711 mmHg 89%
    01:00 +13°C° 0 mm 1 mps 711 mmHg 90%
    02:00 +13°C° 0 mm 1 mps 711 mmHg 90%
    03:00 +13°C° 0 mm 1 mps 711 mmHg 90%
    04:00 +13°C° 0 mm 1 mps 711 mmHg 91%
    05:00 +14°C° 0 mm 1 mps 711 mmHg 87%
    06:00 +15°C° 0 mm 1 mps 711 mmHg 84%
    07:00 +18°C° 0 mm 1 mps 711 mmHg 81%
    08:00 +20°C° 0 mm 1 mps 711 mmHg 73%
    09:00 +22°C° 0 mm 1 mps 711 mmHg 64%
    10:00 +24°C° 0 mm 1 mps 710 mmHg 56%
    11:00 +24°C° 0 mm 2 mps 710 mmHg 55%
    12:00 +25°C° 0 mm 2 mps 710 mmHg 53%
    13:00 +26°C° 0 mm 2 mps 709 mmHg 52%
    14:00 +25°C° 0.3 mm 2 mps 709 mmHg 56%
    15:00 +24°C° 0.3 mm 2 mps 708 mmHg 61%
    16:00 +23°C° 0.3 mm 2 mps 708 mmHg 66%
    17:00 +22°C° 0.2 mm 1 mps 708 mmHg 71%
    18:00 +20°C° 0.2 mm 1 mps 708 mmHg 76%
    19:00 +18°C° 0.2 mm 1 mps 708 mmHg 81%
    20:00 +17°C° 0 mm 2 mps 708 mmHg 79%
    21:00 +17°C° 0 mm 2 mps 708 mmHg 78%
    22:00 +17°C° 0 mm 2 mps 708 mmHg 77%
    23:00 +16°C° 0 mm 2 mps 708 mmHg 77%

    24 August, Saturday

    Time Temperature Precipitation Wind Pressure Humidity
    00:00 +16°C° 0 mm 2 mps 708 mmHg 76%
    01:00 +16°C° 0 mm 2 mps 708 mmHg 76%
    02:00 +16°C° 0 mm 2 mps 708 mmHg 77%
    03:00 +16°C° 0 mm 2 mps 707 mmHg 78%
    04:00 +16°C° 0 mm 2 mps 707 mmHg 79%
    05:00 +17°C° 0 mm 2 mps 708 mmHg 78%
    06:00 +18°C° 0 mm 1 mps 708 mmHg 78%
    07:00 +19°C° 0 mm 1 mps 709 mmHg 77%
    08:00 +19°C° 0 mm 2 mps 709 mmHg 75%
    09:00 +20°C° 0 mm 2 mps 709 mmHg 72%
    10:00 +21°C° 0 mm 2 mps 709 mmHg 70%
    11:00 +20°C° 0.2 mm 2 mps 709 mmHg 74%
    12:00 +19°C° 0.2 mm 2 mps 709 mmHg 78%
    13:00 +18°C° 0.2 mm 2 mps 709 mmHg 83%
    14:00 +18°C° 0.8 mm 2 mps 709 mmHg 85%
    15:00 +18°C° 0.8 mm 1 mps 709 mmHg 88%
    16:00 +18°C° 0.8 mm 1 mps 709 mmHg 90%
    17:00 +16°C° 0.8 mm 1 mps 710 mmHg 92%
    18:00 +16°C° 0.8 mm 1 mps 710 mmHg 94%
    19:00 +15°C° 0.8 mm 1 mps 711 mmHg 96%
    20:00 +15°C° 0 mm 1 mps 711 mmHg 96%
    21:00 +14°C° 0 mm 0 mps 711 mmHg 96%
    22:00 +14°C° 0 mm 0 mps 712 mmHg 96%
    23:00 +14°C° 0 mm 1 mps 712 mmHg 96%

    25 August, Sunday

    Time Temperature Precipitation Wind Pressure Humidity
    00:00 +14°C° 0 mm 1 mps 712 mmHg 96%
    01:00 +14°C° 0 mm 1 mps 712 mmHg 95%
    02:00 +13°C° 0 mm 1 mps 712 mmHg 95%
    03:00 +13°C° 0 mm 1 mps 712 mmHg 95%
    04:00 +13°C° 0 mm 1 mps 712 mmHg 94%
    05:00 +14°C° 0 mm 1 mps 712 mmHg 93%
    06:00 +14°C° 0 mm 1 mps 713 mmHg 91%
    07:00 +15°C° 0 mm 1 mps 713 mmHg 90%
    08:00 +18°C° 0.2 mm 1 mps 713 mmHg 80%
    09:00 +20°C° 0.2 mm 1 mps 713 mmHg 69%
    10:00 +21°C° 0.2 mm 1 mps 713 mmHg 58%
    11:00 +21°C° 0.1 mm 1 mps 713 mmHg 58%
    12:00 +20°C° 0.1 mm 2 mps 713 mmHg 58%
    13:00 +20°C° 0.1 mm 2 mps 713 mmHg 57%
    14:00 +20°C° 0.1 mm 2 mps 713 mmHg 58%
    15:00 +21°C° 0.1 mm 1 mps 713 mmHg 59%
    16:00 +21°C° 0.1 mm 1 mps 713 mmHg 60%
    17:00 +19°C° 0.1 mm 1 mps 713 mmHg 67%
    18:00 +18°C° 0.1 mm 1 mps 713 mmHg 74%
    19:00 +14°C° 0.1 mm 0 mps 713 mmHg 81%
    20:00 +14°C° 0 mm 1 mps 713 mmHg 83%
    21:00 +14°C° 0 mm 1 mps 714 mmHg 84%
    22:00 +13°C° 0 mm 1 mps 714 mmHg 86%
    23:00 +13°C° 0 mm 1 mps 714 mmHg 86%

    26 August, Monday

    Time Temperature Precipitation Wind Pressure Humidity
    00:00 +13°C° 0 mm 1 mps 714 mmHg 86%
    01:00 +12°C° 0 mm 1 mps 714 mmHg 86%
    02:00 +12°C° 0 mm 1 mps 714 mmHg 85%
    03:00 +12°C° 0 mm 2 mps 714 mmHg 85%
    04:00 +12°C° 0 mm 2 mps 714 mmHg 85%
    05:00 +13°C° 0 mm 2 mps 714 mmHg 82%
    06:00 +14°C° 0 mm 2 mps 715 mmHg 80%
    07:00 +15°C° 0 mm 2 mps 715 mmHg 78%
    08:00 +18°C° 0 mm 1 mps 715 mmHg 67%
    09:00 +21°C° 0 mm 1 mps 715 mmHg 56%
    10:00 +21°C° 0 mm 0 mps 715 mmHg 46%
    11:00 +24°C° 0 mm 1 mps 714 mmHg 44%
    12:00 +24°C° 0 mm 1 mps 714 mmHg 42%
    13:00 +25°C° 0 mm 1 mps 713 mmHg 40%
    14:00 +24°C° 0 mm 1 mps 713 mmHg 43%
    15:00 +23°C° 0 mm 1 mps 712 mmHg 46%
    16:00 +22°C° 0 mm 1 mps 712 mmHg 49%
    17:00 +21°C° 0 mm 1 mps 711 mmHg 56%
    18:00 +19°C° 0 mm 1 mps 711 mmHg 63%
    19:00 +16°C° 0 mm 1 mps 711 mmHg 70%
    20:00 +15°C° 0 mm 1 mps 711 mmHg 69%
    21:00 +15°C° 0 mm 1 mps 711 mmHg 69%
    22:00 +14°C° 0 mm 1 mps 711 mmHg 68%
    23:00 +14°C° 0 mm 1 mps 711 mmHg 75%
    Show more